TIME,DELAY(SENSOR),PRES,OXYGEN,RAWTEMP,T(OPTODE),TCPHASE,FLUOR,BETA(BETA700),BETA(BETA412),BETA(BETA440),CDOM,C(CSC),ED(ED411.90),ED(ED443.80),ED(ED489.40),ED(ED554.70),LU(LU412.20),LU(LU443.80),LU(LU489.40),LU(LU555.00),COMP,TILTX,TILTY,CHECK
1345240459,5804,878.6300048828125000,165.4918975830078000,433.7640075683594000,9.9400053024292000,39.6718292236328100,51,107,100,83,73,15533,2147451638,2147789412,2147577901,2147821613,2147309613,2147454912,2147754404,2148270381,932,6,13,34231
1345244055,5802,926.0000000000000000,191.6815032958984400,500.6382141113281000,7.8601531982421875,39.0002708435058600,50,105,101,83,76,15542,2147440621,2147798253,2147585106,2147829120,2147308306,2147451456,2147757586,2148274806,1145,6,14,34685
1345247655,5804,10.1000003814697270,200.0233001708984400,508.2333068847656000,7.6221761703491210,38.6081085205078100,52,107,102,83,75,15533,2147439341,2147794752,2147582482,2147832576,2147306569,2147449106,2147765723,2148278253,3336,6,14,36242
1345251255,5805,10.1999998092651370,200.2124023437500000,510.1026916503906000,7.5635409355163570,38.6295089721679700,52,103,102,82,75,15532,2147437412,2147795236,2147582107,2147832841,2147307382,2147451044,2147761261,2148276891,3231,6,14,53676
1345254855,5803,10.3999996185302730,201.6309051513672000,511.5450134277344000,7.5182847976684570,38.5674095153808600,51,103,102,82,75,15528,2147439908,2147796516,2147583625,2147834331,2147303268,2147449645,2147759890,2148273728,110,6,14,32753
1345258455,5802,10.3000001907348630,204.3410949707031200,515.1030273437500000,7.4065837860107420,38.4657211303710940,51,105,100,82,76,15524,2147434194,2147798592,2147583104,2147832484,2147305033,2147451602,2147760859,2148282395,3476,6,14,45782
1345262055,5804,11.3000001907348630,204.6150970458984400,514.7028808593750000,7.4191508293151855,38.4425697326660160,52,105,102,81,76,15526,2147440621,2147797101,2147585389,2147833993,2147306413,2147449856,2147760548,2148277312,159,6,14,3385
1345265655,5801,1128.0000000000000000,204.5836944580078000,515.5557250976562000,7.3923668861389160,38.4589805603027340,51,106,102,81,76,15524,2147434770,2147799634,2147584164,2147830948,2147304612,2147448822,2147759597,2148278592,3284,6,15,41312
1345269255,5807,11.8000001907348630,206.7290039062500000,517.0712280273438000,7.3447570800781250,38.3574409484863300,51,104,101,84,75,15521,2147438656,2147800073,2147587611,2147830555,2147310884,2147449691,2147762130,2148279478,22,6,14,41938
1345272855,5803,11.3000001907348630,205.9868927001953000,518.3344726562500000,7.3050551414489750,38.4241294860839840,51,103,101,82,75,15519,2147438637,2147797174,2147585673,2147830253,2147308342,2147449627,2147760457,2148276772,3017,6,14,42903
1345276455,5805,11.8000001907348630,206.5948028564453000,517.9127197265625000,7.3183121681213380,38.3801689147949200,52,108,102,82,75,15518,2147436361,2147797805,2147583469,2147828973,2147303698,2147453156,2147762093,2148277458,3235,6,15,63054
1345280055,5803,1090.0000000000000000,205.5523071289062500,517.7893066406250000,7.3221898078918460,38.4405593872070300,51,104,100,81,76,15516,2147435894,2147797302,2147586157,2147828754,2147306724,2147449837,2147762395,2148278171,3367,6,15,18561
1345283655,5802,1022.0000000000000000,205.7989959716797000,516.7135009765625000,7.3559942245483400,38.4065208435058600,51,105,101,82,76,15514,2147434925,2147798564,2147580800,2147830701,2147306304,2147446445,2147762221,2148278573,3452,6,14,41905
1345287255,5802,1165.0000000000000000,206.5592041015625000,518.7451782226562000,7.2921462059021000,38.3977203369140600,51,105,102,83,76,15519,2147434093,2147798765,2147583771,2147829312,2147308123,2147453348,2147758738,2148276416,3417,6,15,25370
1345290855,5808,1191.0000000000000000,207.3565063476562500,518.9240722656250000,7.2865228652954100,38.3530616760253900,50,104,101,82,76,15514,2147435401,2147800923,2147586139,2147831881,2147308992,2147446171,2147763081,2148275501,50,6,14,48385
1345294455,5803,1076.0000000000000000,206.1622924804687500,518.3973999023438000,7.3030791282653810,38.4150886535644500,51,107,102,83,75,15515,2147435977,2147798409,2147585984,2147829933,2147305362,2147449947,2147759753,2148277101,3114,6,14,22787
1345298055,5805,11.6999998092651370,206.6952056884765600,519.3178710937500000,7.2741451263427730,38.3997688293457000,51,109,102,82,75,15516,2147434980,2147800146,2147582701,2147834596,2147306989,2147448612,2147763419,2148275922,183,6,15,3803
1345301655,5805,11.6000003814697270,207.6623992919922000,519.3134765625000000,7.2742819786071780,38.3416900634765600,51,116,101,83,76,15515,2147436553,2147798966,2147583808,2147829312,2147306468,2147449728,2147761197,2148278363,117,6,14,11011
1345305255,5804,1175.0000000000000000,207.8045043945312500,520.1940917968750000,7.2465958595275880,38.3491287231445300,51,103,102,82,76,15514,2147433033,2147796662,2147585837,2147833682,2147303460,2147452425,2147760128,2148277348,595,6,15,5870
1345308855,5805,10.0000000000000000,207.9476013183593800,520.1749877929688000,7.2471938133239750,38.3405494689941400,51,106,101,81,74,15511,2147433142,2147801874,2147584073,2147832128,2147309211,2147448603,2147759734,2148285193,614,6,14,61186
1345312455,5803,100.0000000000000000,208.3968048095703000,520.0045166015625000,7.2525568008422850,38.3111000061035160,50,105,101,83,75,15510,2147432749,2147796178,2147585033,2147830674,2147305426,2147449417,2147761645,2148279680,258,6,14,56656
1345316055,5804,1068.0000000000000000,207.8740997314453000,520.3753051757812000,7.2408981323242190,38.3485908508300800,50,106,101,81,75,15506,2147437933,2147798683,2147585664,2147834112,2147303835,2147449929,2147762038,2148274395,998,6,15,61044
1345319655,5801,12.6000003814697270,207.4096069335937500,520.1843261718750000,7.2469048500061035,38.3721389770507800,50,106,101,82,75,15506,2147433508,2147801188,2147584905,2147834057,2147305664,2147447387,2147762075,2148284004,2831,6,15,63025
1345323255,5806,10.3999996185302730,206.4550933837890600,520.0703125000000000,7.2504878044128420,38.4275512695312500,51,104,101,82,76,15507,2147437805,2147795556,2147584777,2147832694,2147306422,2147447744,2147762386,2148280667,3211,6,15,5694
1345326855,5804,1005.0000000000000000,205.4095001220703000,519.4583129882812000,7.2697319984436035,38.4788513183593750,51,104,104,81,76,15503,2147435629,2147800009,2147582134,2147833115,2147305024,2147453147,2147761014,2148276224,3454,6,15,13607
1345330455,5804,10.1000003814697270,206.5130004882812500,520.6607055664062000,7.2319240570068360,38.4344902038574200,50,104,101,83,75,15505,2147437174,2147799451,2147586450,2147833664,2147306806,2147448210,2147759186,2148277750,387,6,14,20632
1345334055,5804,1200.0000000000000000,207.4510955810547000,520.8073120117188000,7.2273130416870120,38.3810005187988300,52,105,102,82,74,15502,2147437165,2147797366,2147585865,2147832283,2147306505,2147450194,2147763346,2148277056,3067,6,14,44596
1345337655,5805,1260.0000000000000000,206.8957977294922000,520.3001098632812000,7.2432627677917480,38.4050102233886700,51,105,101,83,76,15501,2147435757,2147802404,2147586541,2147830564,2147304676,2147454070,2147763675,2148278272,216,6,14,1421
1345341255,5805,12.8999996185302730,206.6087036132812500,520.2443847656250000,7.2450132369995120,38.4209403991699200,51,103,102,81,76,15500,2147438198,2147797769,2147582427,2147831168,2147307840,2147452397,2147766299,2148276361,253,6,14,49612
1345344855,5806,12.8999996185302730,206.0666961669922000,518.6818237304688000,7.2941389083862305,38.4253082275390600,51,102,101,83,76,15498,2147439259,2147796918,2147584886,2147829833,2147307849,2147445833,2147765732,2148278043,46,6,14,10606
1345348455,5804,1284.0000000000000000,204.5350952148437500,518.7734985351562000,7.2912569046020510,38.5191383361816400,51,104,101,81,76,15497,2147435419,2147800210,2147582866,2147829549,2147306212,2147447076,2147764736,2148276763,218,6,14,3868
1345352055,5806,1080.0000000000000000,206.8368988037109400,518.5662231445312000,7.2977738380432130,38.3779602050781250,51,106,101,82,75,15499,2147439094,2147796425,2147581787,2147831661,2147306194,2147449170,2147761590,2148276635,3221,6,14,36017
1345355655,5803,1006.0000000000000000,207.1266021728515600,518.2877197265625000,7.3065261840820310,38.3555984497070300,51,103,101,81,75,15496,2147437632,2147797741,2147582720,2147831076,2147302052,2147451291,2147767369,2148276534,3300,6,14,45111
1345359255,5804,12.8000001907348630,206.4172973632812500,520.6901245117188000,7.2309999465942380,38.4409599304199200,50,104,101,82,75,15493,2147434477,2147796873,2147582025,2147828635,2147306944,2147448530,2147759917,2148278701,3554,6,14,4318
1345362855,5805,12.8000001907348630,208.2398986816406200,520.7833251953125000,7.2280669212341310,38.3334999084472660,51,106,101,81,75,15495,2147436992,2147795373,2147584493,2147829312,2147305645,2147446802,2147762157,2148277403,232,6,14,39860
1345366455,5805,1070.0000000000000000,207.9474945068359400,520.3558959960938000,7.2415080070495605,38.3436889648437500,51,104,101,82,76,15494,2147436635,2147797814,2147583762,2147832118,2147305673,2147448045,2147765202,2148276187,172,6,14,15152
1345370055,5805,12.8999996185302730,207.8957977294922000,520.1004028320312000,7.2495422363281250,38.3416213989257800,51,104,102,83,76,15493,2147438628,2147797056,2147585755,2147831451,2147305938,2147449243,2147763520,2148275931,273,6,14,20158
1345373655,5802,1049.0000000000000000,207.8547973632812500,520.8557739257812000,7.2257890701293945,38.3579292297363300,50,107,102,81,76,15491,2147435977,2147798738,2147585938,2147828297,2147309504,2147452132,2147762121,2148278802,446,6,15,10755
1345377255,5805,12.1000003814697270,208.0534973144531200,520.8499755859375000,7.2259712219238280,38.3456497192382800,51,106,101,81,76,15491,2147437202,2147800658,2147584438,2147831945,2147303350,2147451062,2147760731,2148276452,549,6,14,3222
1345380855,5804,1047.0000000000000000,208.0941925048828000,522.4335937500000000,7.1761608123779300,38.3712615966796900,51,108,101,82,76,15490,2147436608,2147796681,2147584091,2147832164,2147306523,2147447670,2147762185,2148277120,3459,6,14,7895
1345383055,5805,10.6000003814697270,207.1950988769531200,522.2186279296875000,7.1829237937927250,38.4209785461425800,50,105,102,82,76,15492,2147438939,2147799259,2147585664,2147830006,2147308498,2147449819,2147763117,2148275904,84,6,14,22001
